Wind_Speed
44 42 43 44 44 40 32 26 25 31 36 37 35 33 26 23 20 13 10 7 2 7 9 7 8 9 7 9 9 10 12 14 15 17 17 17 17 17 16 16 16 16 15 15 14 14 16 17 19
43 43 44 47 48 39 32 30 29 35 37 41 41 39 30 23 19 19 16 11 7 11 14 11 11 10 11 10 9 10 13 13 14 15 16 18 18 18 18 17 17 17 17 17 16 17 18 19 20
42 39 50 49 49 38 35 35 33 35 38 44 44 40 33 27 24 22 17 8 12 16 20 17 19 18 13 12 11 10 11 13 14 13 14 16 17 17 17 19 19 19 18 19 20 20 22 24 24
45 46 46 53 46 38 38 36 38 37 41 49 47 42 38 32 31 28 19 10 15 20 21 22 18 17 15 14 14 12 11 12 12 12 15 16 17 18 18 18 19 19 19 18 19 22 21 23 24
43 47 48 42 44 39 41 40 41 40 44 49 50 41 40 35 35 35 18 16 21 22 23 24 24 21 17 16 15 13 10 12 13 14 15 17 18 20 20 20 20 21 19 19 20 21 22 24 25
45 43 49 46 47 43 42 43 43 44 45 49 48 50 49 43 40 32 24 24 19 22 24 26 27 22 23 20 15 12 10 10 12 16 17 18 19 21 21 22 22 23 23 23 23 24 25 26 26
47 48 49 45 45 53 50 47 43 46 47 49 51 51 46 47 43 25 28 30 28 24 22 22 25 20 22 20 16 13 10 8 10 13 17 18 19 20 21 21 22 23 24 26 27 27 27 29 29
54 51 50 44 44 50 53 46 46 49 50 50 46 48 46 45 44 36 30 33 31 27 23 22 25 23 21 18 15 13 11 8 9 11 15 17 17 19 19 20 21 22 23 25 27 29 29 30 31
55 56 48 42 32 44 51 50 47 51 50 49 43 44 47 47 51 46 33 30 32 27 26 25 25 24 23 22 16 13 13 10 8 9 13 15 17 18 19 20 21 21 23 24 26 27 28 30 33
50 54 47 41 39 42 51 58 48 50 51 47 45 45 45 47 48 50 38 32 32 29 28 28 24 25 24 23 21 17 15 12 9 11 13 14 17 18 19 21 23 24 24 25 27 29 29 31 33
49 48 47 51 54 46 50 64 45 50 50 48 45 48 46 46 49 48 49 34 29 34 27 29 27 26 24 23 23 23 18 15 11 11 11 15 16 18 19 20 23 24 25 26 29 32 32 34 35
51 52 48 50 50 49 45 54 58 53 48 52 49 44 47 45 47 47 46 48 43 35 30 28 31 29 27 23 30 27 24 17 16 17 15 16 19 19 22 22 23 26 28 28 31 32 34 35 38
50 49 48 47 49 47 47 53 56 63 50 53 53 47 42 47 48 48 47 46 45 37 33 29 28 29 27 29 26 30 23 20 21 19 16 16 17 21 22 24 24 26 29 29 31 33 34 37 40
45 49 49 47 44 42 47 46 48 57 52 50 55 51 48 49 49 53 51 47 45 40 34 32 34 31 30 26 29 28 28 20 22 20 20 17 15 21 21 24 26 29 31 30 33 35 37 40 41
39 43 45 45 46 47 48 48 44 40 52 62 59 59 53 53 50 50 55 50 46 47 45 43 39 38 36 35 30 26 31 27 27 26 26 25 17 20 21 23 27 31 33 32 32 36 39 42 43
32 35 37 39 43 45 46 41 42 47 51 50 64 72 61 50 53 51 53 54 51 49 43 44 42 42 45 41 38 39 35 32 32 31 34 37 34 21 23 23 27 32 35 35 35 36 38 42 44
32 34 35 35 39 40 42 44 46 48 49 49 53 68 73 62 54 55 56 56 55 54 56 52 49 46 44 44 43 39 37 35 34 36 42 39 30 29 24 26 27 33 35 37 39 38 38 41 45
35 36 37 37 39 39 40 43 43 44 47 47 49 55 72 71 66 60 55 58 59 60 60 57 58 55 52 49 50 48 43 42 40 35 48 45 31 27 29 26 31 33 37 38 42 42 40 41 44
36 38 39 40 41 42 42 42 44 44 46 47 48 48 53 66 70 75 58 58 59 61 62 61 61 58 60 56 56 52 48 49 50 45 45 55 50 42 33 30 33 38 36 37 42 45 43 42 43
38 40 41 42 42 44 43 42 45 47 47 49 50 48 51 56 63 74 71 65 62 61 61 60 60 62 67 67 63 60 56 53 48 49 51 43 52 38 24 32 37 37 41 40 45 47 44 42 42
37 38 39 42 43 44 45 43 41 46 48 51 53 53 54 56 59 61 79 78 73 72 67 63 60 64 56 57 67 62 62 60 50 46 47 39 36 37 37 38 37 42 46 51 51 47 44 41 41
35 38 39 41 43 43 45 48 45 45 47 49 52 54 56 58 59 60 61 68 78 85 78 81 72 69 68 73 69 62 56 56 53 53 47 41 44 45 42 41 42 45 49 54 53 46 41 42 39
33 36 36 38 39 40 40 44 43 46 46 47 52 57 59 59 60 63 65 66 66 66 67 68 67 65 76 75 70 62 60 58 56 55 53 50 47 52 45 47 46 45 51 52 47 43 39 41 37
31 31 34 37 38 40 40 43 43 44 46 50 53 54 58 62 64 65 65 67 67 68 67 69 69 67 63 71 71 69 62 60 60 64 59 45 48 50 47 50 44 41 47 48 48 40 38 39 35
29 29 32 34 34 34 38 43 43 49 51 53 56 57 59 60 63 67 69 69 69 69 69 71 70 68 68 65 72 69 66 63 55 61 55 53 48 52 55 40 44 45 47 50 45 40 36 37 34
25 22 24 30 30 31 32 39 43 48 53 54 58 60 61 61 64 66 68 70 71 71 70 71 71 71 70 66 63 67 68 64 59 58 57 52 53 57 46 45 45 45 47 49 42 40 35 34 33
25 20 21 26 29 33 32 33 41 37 47 49 48 57 60 63 67 68 70 70 71 72 72 71 71 70 69 67 64 63 63 68 61 48 53 48 51 50 46 45 44 42 43 38 39 35 34 31 33
24 20 22 26 31 30 26 26 26 23 28 31 38 30 33 42 53 65 68 73 74 72 72 70 72 69 68 67 67 64 64 65 57 48 46 54 54 44 42 44 40 40 37 35 31 35 30 30 32
24 21 19 21 26 29 28 20 18 18 22 25 26 31 28 25 28 38 49 64 70 75 75 70 69 70 68 65 63 62 61 57 56 51 48 50 48 40 43 42 36 36 33 32 31 33 27 30 30
26 22 21 25 27 31 31 18 12 19 22 25 26 27 30 30 28 29 31 36 47 59 76 75 70 66 68 66 63 60 58 57 55 49 41 43 44 45 45 39 35 33 33 32 33 29 28 31 30
Wind_Direction
227 223 221 220 221 214 203 200 207 210 208 204 213 224 217 218 227 213 205 220 229 285 287 286 298 307 320 336 6 22 11 359 353 349 348 349 346 345 347 347 348 348 349 347 347 343 342 342 339
242 233 220 221 222 212 204 207 213 214 211 205 210 226 217 217 220 224 239 226 275 278 274 269 304 301 296 314 341 7 7 1 358 349 352 353 354 354 353 348 350 350 350 347 347 345 344 343 339
234 239 223 223 220 210 203 214 221 219 212 210 212 218 218 219 219 233 234 256 281 280 280 264 281 283 284 298 325 347 358 352 353 354 360 7 2 3 3 357 353 353 354 349 349 347 345 338 340
232 237 238 226 220 208 205 219 224 222 215 213 214 221 214 222 226 234 237 256 268 274 276 280 282 284 277 288 304 321 343 349 348 350 355 5 4 4 9 2 357 355 351 349 349 345 341 334 339
232 232 237 246 223 207 209 218 225 221 220 218 215 224 218 222 227 236 228 263 266 260 270 273 276 275 279 279 289 301 327 345 351 345 348 352 356 357 1 7 5 356 348 349 349 343 337 336 337
236 232 235 238 230 209 214 217 221 219 219 220 219 218 222 220 221 226 227 238 254 257 266 270 270 261 264 269 279 291 318 342 351 345 341 343 349 349 355 359 2 358 354 355 350 345 340 338 334
238 230 232 227 221 212 204 214 215 217 216 218 220 217 227 227 225 214 221 237 248 251 258 258 256 253 256 264 270 278 293 325 348 351 341 341 342 348 354 355 358 1 359 359 352 344 341 339 334
239 234 226 224 216 213 203 211 211 213 211 217 223 220 225 231 227 223 228 236 245 250 245 236 245 244 251 261 266 269 279 296 330 337 338 338 341 344 351 350 354 1 359 358 352 343 338 336 334
236 241 237 220 210 210 207 208 213 214 209 214 220 223 227 230 234 233 228 239 239 242 238 234 236 239 245 253 265 262 265 280 300 317 326 332 335 340 345 345 345 352 357 356 348 343 338 332 331
236 240 238 234 209 213 209 202 214 215 211 212 218 218 221 225 230 235 228 230 241 237 229 234 237 233 236 246 255 260 261 267 280 292 302 317 323 330 335 340 342 340 344 345 343 340 338 334 328
237 239 239 241 235 221 216 207 209 211 209 209 218 218 217 222 231 236 240 226 225 241 230 225 228 233 235 237 245 254 254 259 267 279 296 302 311 320 327 334 333 333 337 338 337 335 339 336 329
238 239 241 241 239 230 224 217 203 209 205 210 216 222 218 219 228 232 237 244 230 233 226 222 227 232 235 240 242 240 247 251 260 269 277 290 305 317 319 324 327 326 328 333 334 333 335 335 330
236 238 243 243 247 229 223 218 220 208 208 210 214 219 222 223 225 232 240 232 221 219 221 211 229 236 240 238 255 232 235 244 256 256 261 271 292 303 310 315 319 320 324 328 329 331 331 331 332
236 238 243 247 248 241 244 230 222 211 221 211 213 216 217 223 227 225 223 226 217 214 218 223 231 236 246 252 249 233 232 234 255 251 246 262 282 292 302 309 315 313 313 318 322 324 329 327 327
240 240 241 242 242 244 245 231 227 224 229 213 213 216 214 218 221 228 230 228 229 231 229 236 237 244 252 252 247 237 235 259 258 250 244 252 261 288 297 303 308 306 306 311 314 318 323 325 326
246 247 244 240 239 240 244 231 236 236 236 227 215 218 215 216 221 225 229 234 233 233 225 223 234 243 252 252 251 249 250 254 258 252 253 248 255 272 290 299 299 301 302 305 305 310 318 322 322
247 249 249 247 246 243 243 242 234 240 240 239 228 223 225 218 219 221 230 233 236 238 241 234 237 240 246 250 249 255 252 256 256 254 244 238 249 260 275 286 291 296 301 302 301 304 313 317 318
252 251 250 248 248 248 247 244 241 241 245 242 239 232 223 228 225 223 227 231 234 239 242 244 247 247 246 248 249 250 251 256 262 251 252 281 244 258 273 280 292 294 297 300 298 301 306 312 315
252 253 254 253 250 247 244 246 244 243 243 244 244 239 245 232 226 229 228 231 236 237 239 242 244 245 245 245 247 249 252 251 259 259 259 266 256 240 254 275 286 285 291 295 299 299 303 308 311
249 250 252 254 255 254 247 241 246 248 246 245 245 242 237 240 244 225 225 230 235 235 239 242 242 242 243 243 245 248 250 253 252 251 256 255 288 258 289 284 283 291 294 297 299 298 302 305 307
256 256 254 254 254 258 259 251 244 248 248 248 247 244 240 237 238 245 232 231 231 233 234 237 240 248 244 243 246 248 250 252 248 252 254 282 285 283 275 278 283 285 291 294 293 294 299 305 305
260 258 258 259 258 256 257 254 250 246 250 251 250 249 245 242 238 237 241 241 242 241 236 235 236 239 248 248 253 255 252 251 245 250 255 267 276 275 271 276 279 284 287 290 287 289 296 302 304
262 263 265 265 264 263 263 261 253 254 254 253 253 252 250 245 242 240 236 236 237 239 242 243 243 249 246 248 256 249 252 257 257 256 255 259 266 269 269 273 283 286 286 283 280 287 294 298 301
263 264 265 267 268 269 268 269 260 264 265 264 260 253 254 252 248 243 241 238 237 238 238 239 242 243 245 245 249 255 253 253 258 260 260 258 265 265 271 280 277 281 279 275 274 286 290 294 295
261 262 263 261 266 274 276 266 266 270 267 266 262 259 257 253 253 251 246 241 239 237 237 238 240 242 243 244 246 251 255 257 261 265 263 268 272 272 276 270 268 272 272 272 278 284 287 288 290
263 270 280 284 288 289 291 286 273 274 273 273 268 265 261 257 253 250 249 247 242 239 239 237 239 241 241 242 240 246 253 256 258 259 260 266 266 269 267 261 265 273 274 271 279 278 281 283 288
265 270 277 288 293 294 301 308 288 288 279 276 270 266 263 259 254 250 248 247 246 243 238 238 237 238 241 243 241 242 246 250 251 251 258 257 262 263 259 259 266 271 270 270 270 275 276 282 289
264 270 278 288 294 299 311 318 319 283 277 268 270 276 272 266 261 254 247 244 245 244 242 237 236 236 236 238 240 240 242 246 253 248 249 256 259 259 260 261 266 265 271 267 270 269 274 282 284
259 268 279 295 302 304 308 315 318 283 283 277 269 272 268 269 272 271 264 249 242 241 241 240 235 234 235 235 236 238 241 244 247 247 244 249 254 255 255 259 261 267 270 268 267 268 275 280 275
253 264 281 293 301 303 306 316 323 301 279 269 268 264 258 261 263 265 269 262 251 244 235 237 236 232 231 231 233 234 239 243 247 249 247 250 251 248 254 258 257 264 261 265 264 270 275 274 271
Height
5837 5842 5848 5852 5857 5862 5869 5874 5872 5871 5870 5871 5870 5871 5876 5880 5883 5888 5886 5889 5890 5892 5894 5894 5896 5897 5896 5895 5894 5893 5893 5892 5892 5892 5892 5891 5890 5890 5889 5887 5885 5884 5882 5881 5878 5877 5876 5874 5872
5831 5835 5840 5844 5848 5858 5867 5868 5867 5865 5866 5867 5867 5868 5875 5879 5881 5884 5884 5887 5889 5891 5892 5894 5895 5896 5896 5895 5895 5894 5893 5892 5892 5891 5890 5890 5889 5889 5888 5887 5885 5883 5881 5879 5877 5875 5873 5872 5870
5824 5827 5831 5835 5841 5854 5862 5862 5862 5862 5863 5862 5863 5868 5872 5877 5879 5880 5881 5884 5888 5890 5891 5892 5893 5894 5894 5895 5895 5893 5893 5893 5893 5892 5891 5889 5889 5888 5886 5885 5884 5883 5880 5879 5875 5872 5870 5869 5866
5817 5821 5825 5829 5838 5849 5854 5854 5855 5857 5858 5856 5860 5863 5868 5872 5876 5877 5877 5882 5885 5886 5888 5889 5890 5891 5892 5894 5894 5893 5892 5892 5892 5891 5890 5888 5888 5886 5884 5883 5882 5880 5879 5877 5873 5871 5868 5867 5864
5808 5812 5815 5822 5833 5839 5844 5846 5847 5852 5852 5853 5858 5861 5869 5871 5872 5873 5875 5878 5881 5883 5885 5886 5887 5889 5890 5891 5892 5892 5891 5891 5891 5890 5889 5888 5887 5885 5883 5880 5879 5878 5877 5875 5872 5870 5868 5865 5863
5800 5803 5807 5817 5826 5830 5834 5836 5838 5844 5847 5848 5854 5856 5854 5860 5864 5868 5871 5872 5875 5879 5881 5883 5885 5886 5887 5888 5890 5891 5889 5889 5889 5888 5888 5887 5885 5885 5882 5880 5877 5877 5876 5873 5871 5868 5866 5862 5860
5791 5794 5801 5808 5816 5816 5819 5825 5830 5836 5840 5841 5845 5851 5855 5858 5860 5863 5867 5868 5871 5874 5878 5880 5882 5882 5884 5885 5887 5888 5887 5887 5887 5886 5886 5886 5885 5883 5882 5880 5878 5876 5874 5871 5870 5867 5865 5862 5859
5782 5786 5792 5797 5805 5808 5811 5814 5822 5826 5832 5833 5836 5845 5849 5853 5854 5857 5863 5865 5868 5871 5873 5876 5877 5879 5881 5882 5884 5886 5886 5885 5886 5886 5885 5885 5883 5883 5881 5880 5877 5874 5873 5871 5868 5867 5864 5860 5857
5773 5776 5784 5792 5793 5799 5800 5808 5814 5819 5823 5827 5830 5837 5842 5845 5849 5852 5857 5860 5863 5866 5869 5871 5873 5877 5879 5880 5881 5883 5883 5884 5884 5884 5884 5884 5882 5881 5879 5878 5876 5873 5870 5868 5867 5865 5862 5858 5855
5764 5768 5777 5784 5783 5787 5791 5798 5806 5815 5819 5821 5824 5829 5833 5838 5841 5846 5849 5854 5858 5861 5864 5867 5870 5873 5875 5877 5879 5880 5880 5881 5882 5882 5882 5881 5880 5879 5877 5876 5874 5872 5869 5867 5865 5863 5860 5856 5852
5758 5760 5766 5768 5774 5778 5786 5789 5795 5804 5813 5815 5817 5821 5828 5831 5834 5838 5843 5846 5851 5855 5858 5861 5864 5867 5871 5874 5875 5876 5877 5878 5880 5880 5879 5879 5878 5877 5875 5873 5871 5869 5867 5865 5862 5860 5857 5854 5849
5751 5753 5756 5758 5762 5772 5777 5782 5786 5795 5807 5807 5809 5814 5819 5824 5828 5833 5835 5839 5842 5847 5850 5855 5858 5860 5864 5869 5869 5871 5873 5874 5876 5876 5877 5877 5876 5874 5873 5871 5868 5866 5865 5862 5859 5856 5854 5850 5846
5744 5747 5747 5753 5756 5764 5771 5776 5782 5790 5793 5796 5802 5806 5811 5817 5821 5825 5830 5829 5833 5837 5843 5847 5850 5853 5857 5860 5863 5864 5867 5870 5872 5872 5873 5873 5873 5872 5870 5868 5865 5863 5861 5860 5856 5853 5850 5846 5842
5736 5740 5743 5746 5750 5754 5759 5767 5773 5788 5783 5787 5791 5795 5801 5806 5810 5814 5819 5821 5822 5825 5832 5839 5843 5847 5850 5853 5857 5858 5861 5863 5867 5868 5868 5868 5868 5867 5865 5864 5862 5860 5858 5856 5853 5849 5846 5842 5838
5728 5732 5734 5739 5743 5744 5748 5756 5765 5770 5759 5770 5778 5783 5787 5792 5799 5804 5808 5816 5814 5818 5822 5829 5835 5840 5843 5847 5851 5852 5854 5856 5860 5862 5862 5862 5862 5862 5860 5860 5859 5856 5854 5851 5849 5845 5841 5838 5833
5722 5725 5727 5731 5734 5739 5741 5753 5753 5754 5755 5764 5769 5772 5777 5782 5786 5793 5798 5805 5808 5812 5814 5819 5826 5831 5834 5840 5842 5844 5846 5849 5852 5855 5855 5854 5854 5854 5855 5853 5853 5851 5849 5847 5844 5840 5837 5833 5828
5716 5718 5721 5724 5725 5731 5735 5738 5744 5746 5748 5754 5759 5764 5767 5772 5776 5779 5788 5794 5798 5803 5808 5811 5814 5820 5826 5832 5835 5837 5838 5839 5843 5847 5845 5844 5846 5844 5846 5847 5846 5845 5844 5842 5839 5836 5832 5829 5823
5709 5712 5714 5717 5720 5723 5727 5729 5734 5739 5740 5744 5749 5751 5757 5763 5766 5769 5775 5782 5788 5792 5798 5803 5809 5810 5815 5818 5823 5827 5830 5833 5836 5837 5836 5837 5834 5838 5839 5841 5841 5838 5837 5836 5833 5831 5827 5823 5818
5702 5703 5705 5708 5711 5715 5718 5721 5725 5729 5731 5734 5739 5745 5747 5751 5755 5760 5765 5770 5775 5781 5785 5791 5796 5802 5803 5806 5811 5815 5819 5825 5827 5832 5830 5827 5827 5825 5824 5832 5834 5832 5830 5829 5827 5824 5822 5817 5812
5695 5695 5696 5697 5699 5701 5706 5714 5715 5716 5721 5723 5727 5733 5738 5740 5742 5745 5751 5758 5762 5770 5773 5776 5782 5788 5792 5796 5800 5805 5811 5813 5819 5821 5811 5812 5809 5819 5821 5826 5828 5825 5823 5822 5820 5817 5815 5811 5806
5686 5688 5688 5689 5690 5690 5692 5701 5707 5707 5710 5712 5715 5719 5723 5728 5731 5733 5738 5743 5749 5756 5760 5764 5768 5772 5779 5785 5790 5795 5800 5804 5809 5812 5813 5808 5814 5813 5817 5818 5819 5817 5816 5815 5813 5810 5810 5804 5801
5678 5677 5678 5678 5679 5682 5685 5685 5693 5698 5699 5700 5700 5704 5709 5713 5721 5726 5727 5731 5737 5743 5746 5752 5755 5760 5765 5770 5776 5781 5787 5792 5799 5804 5808 5809 5810 5808 5809 5810 5810 5810 5809 5806 5804 5803 5802 5797 5794
5671 5670 5670 5670 5670 5671 5674 5674 5684 5683 5685 5687 5688 5688 5693 5699 5705 5710 5714 5717 5722 5726 5731 5736 5741 5746 5752 5757 5762 5770 5775 5781 5788 5793 5797 5801 5801 5801 5801 5801 5802 5801 5799 5797 5795 5796 5794 5791 5788
5663 5663 5662 5662 5662 5664 5663 5664 5673 5672 5672 5669 5669 5674 5677 5681 5685 5692 5698 5704 5707 5711 5716 5721 5725 5732 5739 5744 5749 5755 5763 5770 5776 5782 5789 5792 5792 5790 5789 5793 5792 5791 5789 5787 5786 5789 5787 5783 5783
5655 5654 5654 5655 5655 5654 5653 5658 5664 5656 5654 5652 5653 5657 5661 5664 5670 5673 5678 5685 5691 5697 5702 5707 5712 5720 5726 5733 5738 5742 5750 5756 5763 5768 5775 5779 5779 5780 5782 5783 5782 5781 5779 5779 5781 5782 5779 5777 5776
5647 5646 5644 5642 5643 5644 5643 5644 5649 5645 5639 5633 5635 5638 5643 5649 5650 5653 5659 5666 5672 5679 5686 5693 5700 5708 5714 5722 5727 5733 5738 5744 5750 5757 5765 5768 5769 5769 5773 5772 5772 5773 5770 5770 5774 5774 5772 5771 5769
5639 5638 5637 5635 5634 5632 5633 5633 5638 5629 5621 5619 5618 5622 5623 5624 5628 5634 5639 5643 5651 5661 5669 5678 5685 5694 5701 5708 5716 5723 5728 5733 5741 5746 5754 5755 5756 5758 5762 5761 5761 5762 5760 5763 5765 5765 5764 5764 5763
5630 5631 5631 5628 5625 5623 5624 5621 5618 5617 5614 5611 5609 5610 5609 5608 5609 5612 5616 5622 5631 5640 5650 5660 5668 5681 5690 5696 5703 5711 5717 5721 5727 5734 5741 5743 5743 5749 5751 5750 5753 5752 5754 5755 5757 5757 5757 5757 5756
5624 5623 5623 5621 5618 5615 5613 5615 5612 5610 5608 5607 5605 5602 5599 5599 5600 5598 5598 5605 5611 5618 5627 5640 5650 5661 5673 5683 5692 5699 5705 5711 5716 5723 5729 5731 5735 5740 5741 5743 5744 5745 5747 5748 5750 5750 5750 5750 5750
5616 5616 5615 5613 5611 5607 5605 5608 5605 5604 5601 5597 5595 5592 5590 5590 5590 5587 5588 5590 5592 5597 5607 5619 5633 5646 5656 5667 5677 5686 5692 5699 5704 5711 5718 5722 5727 5730 5732 5734 5736 5739 5740 5742 5743 5743 5743 5743 5743